Location: ??
(31.9467°N, 34.8903°E)
Time: 12:12:25
(UTC+00:00)

MOS 1 Rocket - Pass Details

Date: 29 October 2020
Orbit: 615 x 829 km, 97.4° (Epoch: 26 November)

Event Time Altitude Azimuth Distance (km) Brightness Sun altitude
Rises 16:26:12 0° 11° (N) 3,093 6.5 -20.3°
Reaches altitude 10° 16:28:24 10° 11° (NNE) 2,203 5.7 -20.7°
Maximum altitude 16:33:16 90° 93° (E) 754 3.3 -21.8°
Drops below altitude 10° 16:38:25 10° 192° (SSW) 2,325 6.2 -22.9°
Sets 16:40:47 0° 193° (SSW) 3,277 7.0 -23.4°
